Time,TemperatureF,DewpointF,PressureIn,WindDirection,WindDirectionDegrees,WindSpeedMPH,WindSpeedGustMPH,Humidity,HourlyPrecipIn,Conditions,Clouds,dailyrainin,SolarRadiationWatts/m^2,SoftwareType,DateUTC
2013-05-03 00:00:00,65.4,54.6,30.05,SSE,154,0.0,0.0,68,0.00,,,0.00,0,Wunderground v.1.15,2013-05-03 04:00:00,
2013-05-03 00:01:00,65.4,54.6,30.05,SSE,154,0.0,0.0,68,0.00,,,0.00,0,Wunderground v.1.15,2013-05-03 04:01:00,
2013-05-03 00:06:00,65.4,54.6,30.05,SSE,154,0.0,0.0,68,0.00,,,0.00,0,Wunderground v.1.15,2013-05-03 04:06:00,
2013-05-03 00:11:00,64.9,54.9,30.05,SSE,154,0.0,0.0,70,0.00,,,0.00,0,Wunderground v.1.15,2013-05-03 04:11:00,
2013-05-03 00:16:00,64.4,54.8,30.05,SSE,154,0.0,0.0,71,0.00,,,0.00,0,Wunderground v.1.15,2013-05-03 04:16:00,
2013-05-03 00:21:00,64.3,54.7,30.05,SSE,154,0.0,0.0,71,0.00,,,0.00,0,Wunderground v.1.15,2013-05-03 04:21:00,
2013-05-03 00:26:00,64.3,54.7,30.04,SSE,154,0.0,0.0,71,0.00,,,0.00,0,Wunderground v.1.15,2013-05-03 04:26:00,
2013-05-03 00:31:00,63.9,54.7,30.05,SSE,154,0.0,0.0,72,0.00,,,0.00,0,Wunderground v.1.15,2013-05-03 04:31:00,
2013-05-03 00:36:00,63.8,54.6,30.05,SSE,154,0.0,0.0,72,0.00,,,0.00,0,Wunderground v.1.15,2013-05-03 04:36:00,
2013-05-03 00:41:00,64.2,55.0,30.04,SSE,154,0.0,0.0,72,0.00,,,0.00,0,Wunderground v.1.15,2013-05-03 04:41:00,
2013-05-03 00:46:00,64.4,54.8,30.04,SSE,154,0.0,0.0,71,0.00,,,0.00,0,Wunderground v.1.15,2013-05-03 04:46:00,
2013-05-03 00:51:00,64.4,54.8,30.04,SSE,154,0.0,0.0,71,0.00,,,0.00,0,Wunderground v.1.15,2013-05-03 04:51:00,
2013-05-03 00:56:00,64.3,54.3,30.04,SSE,154,0.0,0.0,70,0.00,,,0.00,0,Wunderground v.1.15,2013-05-03 04:56:00,
2013-05-03 01:01:00,64.2,54.6,30.04,SSE,154,0.0,0.0,71,0.00,,,0.00,0,Wunderground v.1.15,2013-05-03 05:01:00,
2013-05-03 01:06:00,64.2,54.6,30.04,SSE,154,0.0,0.0,71,0.00,,,0.00,0,Wunderground v.1.15,2013-05-03 05:06:00,
2013-05-03 01:11:00,64.0,54.4,30.04,SSW,200,2.0,3.0,71,0.00,,,0.00,0,Wunderground v.1.15,2013-05-03 05:11:00,
2013-05-03 01:16:00,63.7,54.1,30.04,SSW,202,1.0,3.0,71,0.00,,,0.00,0,Wunderground v.1.15,2013-05-03 05:16:00,
2013-05-03 01:21:00,63.8,54.2,30.05,SSW,200,6.0,7.0,71,0.00,,,0.00,0,Wunderground v.1.15,2013-05-03 05:21:00,
2013-05-03 01:26:00,63.9,53.9,30.05,SW,224,1.0,7.0,70,0.00,,,0.00,0,Wunderground v.1.15,2013-05-03 05:26:00,
2013-05-03 01:31:00,63.7,54.1,30.05,SW,221,4.0,5.0,71,0.00,,,0.00,0,Wunderground v.1.15,2013-05-03 05:31:00,
2013-05-03 01:36:00,63.7,54.1,30.04,WSW,246,3.0,8.0,71,0.00,,,0.00,0,Wunderground v.1.15,2013-05-03 05:36:00,
2013-05-03 01:41:00,63.9,54.3,30.04,South,185,4.0,8.0,71,0.00,,,0.00,0,Wunderground v.1.15,2013-05-03 05:41:00,
2013-05-03 01:46:00,63.9,54.3,30.04,SSW,199,5.0,9.0,71,0.00,,,0.00,0,Wunderground v.1.15,2013-05-03 05:46:00,
2013-05-03 01:51:00,63.9,54.7,30.04,SSW,200,5.0,6.0,72,0.00,,,0.00,0,Wunderground v.1.15,2013-05-03 05:51:00,
2013-05-03 01:56:00,63.9,54.7,30.04,SSW,200,2.0,7.0,72,0.00,,,0.00,0,Wunderground v.1.15,2013-05-03 05:56:00,
2013-05-03 02:01:00,64.0,54.8,30.04,SSW,204,1.0,5.0,72,0.00,,,0.00,0,Wunderground v.1.15,2013-05-03 06:01:00,
2013-05-03 02:06:00,64.0,54.8,30.04,SW,224,1.0,7.0,72,0.00,,,0.00,0,Wunderground v.1.15,2013-05-03 06:06:00,
2013-05-03 02:11:00,64.1,54.9,30.04,SW,227,4.0,7.0,72,0.00,,,0.00,0,Wunderground v.1.15,2013-05-03 06:11:00,
2013-05-03 02:16:00,64.1,54.9,30.04,South,191,5.0,8.0,72,0.00,,,0.00,0,Wunderground v.1.15,2013-05-03 06:16:00,
2013-05-03 02:21:00,64.1,54.9,30.04,SSW,207,7.0,8.0,72,0.00,,,0.00,0,Wunderground v.1.15,2013-05-03 06:21:00,
2013-05-03 02:26:00,64.1,54.9,30.03,SSW,208,2.0,8.0,72,0.00,,,0.00,0,Wunderground v.1.15,2013-05-03 06:26:00,
2013-05-03 02:31:00,64.1,54.9,30.03,SSW,201,3.0,6.0,72,0.00,,,0.00,0,Wunderground v.1.15,2013-05-03 06:31:00,
2013-05-03 02:36:00,64.2,55.0,30.03,SSW,206,1.0,7.0,72,0.00,,,0.00,0,Wunderground v.1.15,2013-05-03 06:36:00,
2013-05-03 02:41:00,64.1,54.5,30.03,SE,144,7.0,8.0,71,0.00,,,0.00,0,Wunderground v.1.15,2013-05-03 06:41:00,
2013-05-03 02:46:00,64.1,54.9,30.03,SSW,207,6.0,8.0,72,0.00,,,0.00,0,Wunderground v.1.15,2013-05-03 06:46:00,
2013-05-03 02:51:00,63.9,54.7,30.03,WSW,247,6.0,7.0,72,0.00,,,0.00,0,Wunderground v.1.15,2013-05-03 06:51:00,
2013-05-03 02:56:00,63.8,54.6,30.03,SSW,212,3.0,9.0,72,0.00,,,0.00,0,Wunderground v.1.15,2013-05-03 06:56:00,
2013-05-03 03:01:00,63.7,54.9,30.03,SW,230,5.0,8.0,73,0.00,,,0.00,0,Wunderground v.1.15,2013-05-03 07:01:00,
2013-05-03 03:06:00,63.7,54.5,30.03,South,181,4.0,9.0,72,0.00,,,0.00,0,Wunderground v.1.15,2013-05-03 07:06:00,
2013-05-03 03:11:00,63.6,54.8,30.03,SW,225,2.0,7.0,73,0.00,,,0.00,0,Wunderground v.1.15,2013-05-03 07:11:00,
2013-05-03 03:16:00,63.4,54.6,30.02,SW,219,3.0,7.0,73,0.00,,,0.00,0,Wunderground v.1.15,2013-05-03 07:16:00,
2013-05-03 03:21:00,63.3,54.5,30.02,SSW,200,5.0,9.0,73,0.00,,,0.00,0,Wunderground v.1.15,2013-05-03 07:21:00,
2013-05-03 03:26:00,63.1,54.3,30.02,SW,214,4.0,9.0,73,0.00,,,0.00,0,Wunderground v.1.15,2013-05-03 07:26:00,
2013-05-03 03:31:00,63.1,54.3,30.02,SSW,205,0.0,8.0,73,0.00,,,0.00,0,Wunderground v.1.15,2013-05-03 07:31:00,
2013-05-03 03:36:00,63.0,54.2,30.02,SSW,212,6.0,8.0,73,0.00,,,0.00,0,Wunderground v.1.15,2013-05-03 07:36:00,
2013-05-03 03:41:00,63.0,54.2,30.02,South,186,5.0,8.0,73,0.00,,,0.00,0,Wunderground v.1.15,2013-05-03 07:41:00,
2013-05-03 03:46:00,63.0,54.2,30.02,South,182,4.0,9.0,73,0.00,,,0.00,0,Wunderground v.1.15,2013-05-03 07:46:00,
2013-05-03 03:51:00,62.9,54.1,30.02,SSW,194,3.0,9.0,73,0.00,,,0.00,0,Wunderground v.1.15,2013-05-03 07:51:00,
2013-05-03 03:56:00,63.0,54.2,30.02,SSW,207,1.0,13.0,73,0.00,,,0.00,0,Wunderground v.1.15,2013-05-03 07:56:00,
2013-05-03 04:01:00,63.0,53.8,30.02,SSE,168,4.0,8.0,72,0.00,,,0.00,0,Wunderground v.1.15,2013-05-03 08:01:00,
2013-05-03 04:06:00,63.0,53.8,30.02,SSE,150,5.0,8.0,72,0.00,,,0.00,0,Wunderground v.1.15,2013-05-03 08:06:00,
2013-05-03 04:11:00,62.9,53.7,30.02,SSW,193,4.0,6.0,72,0.00,,,0.00,0,Wunderground v.1.15,2013-05-03 08:11:00,
2013-05-03 04:16:00,62.7,53.9,30.02,South,183,3.0,6.0,73,0.00,,,0.00,0,Wunderground v.1.15,2013-05-03 08:16:00,
2013-05-03 04:21:00,62.6,53.8,30.02,South,173,4.0,10.0,73,0.00,,,0.00,0,Wunderground v.1.15,2013-05-03 08:21:00,
2013-05-03 04:26:00,62.5,53.7,30.02,SSW,213,4.0,10.0,73,0.00,,,0.00,0,Wunderground v.1.15,2013-05-03 08:26:00,
2013-05-03 04:31:00,62.3,53.9,30.02,SW,219,4.0,6.0,74,0.00,,,0.00,0,Wunderground v.1.15,2013-05-03 08:31:00,
2013-05-03 04:36:00,62.2,53.8,30.02,SSW,201,4.0,6.0,74,0.00,,,0.00,0,Wunderground v.1.15,2013-05-03 08:36:00,
2013-05-03 04:41:00,62.1,53.7,30.02,South,188,5.0,6.0,74,0.00,,,0.00,0,Wunderground v.1.15,2013-05-03 08:41:00,
2013-05-03 04:46:00,61.9,53.5,30.02,SSW,192,1.0,7.0,74,0.00,,,0.00,0,Wunderground v.1.15,2013-05-03 08:46:00,
2013-05-03 04:51:00,61.7,53.7,30.02,SSW,196,6.0,6.0,75,0.00,,,0.00,0,Wunderground v.1.15,2013-05-03 08:51:00,
2013-05-03 04:56:00,61.6,53.6,30.03,SSW,194,0.0,6.0,75,0.00,,,0.00,0,Wunderground v.1.15,2013-05-03 08:56:00,
2013-05-03 05:01:00,61.3,53.7,30.02,South,179,1.0,3.0,76,0.00,,,0.00,0,Wunderground v.1.15,2013-05-03 09:01:00,
2013-05-03 05:06:00,61.2,53.6,30.02,SSE,158,1.0,5.0,76,0.00,,,0.00,0,Wunderground v.1.15,2013-05-03 09:06:00,
2013-05-03 05:11:00,61.0,53.7,30.02,SSW,203,0.0,5.0,77,0.00,,,0.00,0,Wunderground v.1.15,2013-05-03 09:11:00,
2013-05-03 05:16:00,60.8,53.5,30.02,SSW,198,1.0,5.0,77,0.00,,,0.00,0,Wunderground v.1.15,2013-05-03 09:16:00,
2013-05-03 05:21:00,60.6,53.7,30.02,SSW,196,5.0,5.0,78,0.00,,,0.00,0,Wunderground v.1.15,2013-05-03 09:21:00,
2013-05-03 05:26:00,60.5,53.6,30.02,SSW,198,3.0,7.0,78,0.00,,,0.00,0,Wunderground v.1.15,2013-05-03 09:26:00,
2013-05-03 05:31:00,60.4,53.5,30.03,SSW,205,2.0,6.0,78,0.00,,,0.00,0,Wunderground v.1.15,2013-05-03 09:31:00,
2013-05-03 05:36:00,60.3,53.4,30.03,SSW,196,2.0,7.0,78,0.00,,,0.00,0,Wunderground v.1.15,2013-05-03 09:36:00,
2013-05-03 05:41:00,60.2,53.3,30.03,SSW,198,3.0,6.0,78,0.00,,,0.00,0,Wunderground v.1.15,2013-05-03 09:41:00,
2013-05-03 05:46:00,60.2,53.3,30.03,SSW,207,1.0,7.0,78,0.00,,,0.00,0,Wunderground v.1.15,2013-05-03 09:46:00,
2013-05-03 05:51:00,60.0,53.1,30.03,SSW,202,5.0,5.0,78,0.00,,,0.00,0,Wunderground v.1.15,2013-05-03 09:51:00,
2013-05-03 05:56:00,59.9,53.0,30.03,SSW,205,2.0,7.0,78,0.00,,,0.00,0,Wunderground v.1.15,2013-05-03 09:56:00,
2013-05-03 06:01:00,59.9,53.0,30.03,SSW,198,4.0,7.0,78,0.00,,,0.00,0,Wunderground v.1.15,2013-05-03 10:01:00,
2013-05-03 06:06:00,59.8,52.9,30.03,SSW,192,3.0,7.0,78,0.00,,,0.00,0,Wunderground v.1.15,2013-05-03 10:06:00,
2013-05-03 06:11:00,59.6,52.7,30.03,SSW,211,4.0,6.0,78,0.00,,,0.00,0,Wunderground v.1.15,2013-05-03 10:11:00,
2013-05-03 06:16:00,59.5,53.0,30.03,SSW,194,1.0,6.0,79,0.00,,,0.00,0,Wunderground v.1.15,2013-05-03 10:16:00,
2013-05-03 06:21:00,59.4,52.9,30.03,SSW,195,0.0,5.0,79,0.00,,,0.00,0,Wunderground v.1.15,2013-05-03 10:21:00,
2013-05-03 06:26:00,59.3,52.8,30.03,SSW,207,2.0,6.0,79,0.00,,,0.00,0,Wunderground v.1.15,2013-05-03 10:26:00,
2013-05-03 06:31:00,59.4,52.9,30.03,SSW,211,2.0,7.0,79,0.00,,,0.00,0,Wunderground v.1.15,2013-05-03 10:31:00,
2013-05-03 06:36:00,59.3,52.8,30.03,South,191,2.0,7.0,79,0.00,,,0.00,5,Wunderground v.1.15,2013-05-03 10:36:00,
2013-05-03 06:41:00,59.3,52.8,30.03,South,173,1.0,5.0,79,0.00,,,0.00,5,Wunderground v.1.15,2013-05-03 10:41:00,
2013-05-03 06:46:00,59.3,52.8,30.03,SSW,193,1.0,5.0,79,0.00,,,0.00,11,Wunderground v.1.15,2013-05-03 10:46:00,
2013-05-03 06:51:00,59.4,52.9,30.03,SSW,203,3.0,6.0,79,0.00,,,0.00,19,Wunderground v.1.15,2013-05-03 10:51:00,
2013-05-03 06:57:00,59.3,52.8,30.03,SW,216,5.0,6.0,79,0.00,,,0.00,25,Wunderground v.1.15,2013-05-03 10:57:00,
2013-05-03 07:02:00,59.4,53.2,30.04,South,188,6.0,6.0,80,0.00,,,0.00,35,Wunderground v.1.15,2013-05-03 11:02:00,
2013-05-03 07:07:00,59.5,53.0,30.04,South,180,3.0,7.0,79,0.00,,,0.00,47,Wunderground v.1.15,2013-05-03 11:07:00,
2013-05-03 07:12:00,59.7,53.2,30.04,South,184,3.0,4.0,79,0.00,,,0.00,58,Wunderground v.1.15,2013-05-03 11:12:00,
2013-05-03 07:17:00,59.9,53.4,30.04,South,178,2.0,5.0,79,0.00,,,0.00,62,Wunderground v.1.15,2013-05-03 11:17:00,
2013-05-03 07:22:00,60.0,53.5,30.04,SSW,200,1.0,7.0,79,0.00,,,0.00,62,Wunderground v.1.15,2013-05-03 11:22:00,
2013-05-03 07:27:00,60.1,53.6,30.04,SSW,194,1.0,7.0,79,0.00,,,0.00,65,Wunderground v.1.15,2013-05-03 11:27:00,
2013-05-03 07:32:00,60.1,53.2,30.04,SSW,209,2.0,5.0,78,0.00,,,0.00,77,Wunderground v.1.15,2013-05-03 11:32:00,
2013-05-03 07:37:00,60.1,53.2,30.05,South,176,3.0,6.0,78,0.00,,,0.00,88,Wunderground v.1.15,2013-05-03 11:37:00,
2013-05-03 07:42:00,60.2,53.7,30.05,South,182,2.0,4.0,79,0.00,,,0.00,100,Wunderground v.1.15,2013-05-03 11:42:00,
2013-05-03 07:47:00,60.5,53.6,30.05,South,185,0.0,6.0,78,0.00,,,0.00,116,Wunderground v.1.15,2013-05-03 11:47:00,
2013-05-03 07:52:00,60.7,53.8,30.05,SSW,202,1.0,5.0,78,0.00,,,0.00,127,Wunderground v.1.15,2013-05-03 11:52:00,
2013-05-03 07:53:00,60.7,53.8,30.05,SSW,196,5.0,5.0,78,0.00,,,0.00,125,Wunderground v.1.15,2013-05-03 11:53:00,
2013-05-03 07:58:00,60.7,53.4,30.05,SSW,197,3.0,7.0,77,0.00,,,0.00,127,Wunderground v.1.15,2013-05-03 11:58:00,
2013-05-03 08:03:00,60.9,54.0,30.05,West,263,1.0,5.0,78,0.00,,,0.00,163,Wunderground v.1.15,2013-05-03 12:03:00,
2013-05-03 08:08:00,61.1,53.8,30.05,South,191,2.0,7.0,77,0.00,,,0.00,188,Wunderground v.1.15,2013-05-03 12:08:00,
2013-05-03 08:13:00,61.3,54.0,30.04,SE,124,6.0,7.0,77,0.00,,,0.00,188,Wunderground v.1.15,2013-05-03 12:13:00,
2013-05-03 08:18:00,61.3,54.0,30.04,South,169,6.0,7.0,77,0.00,,,0.00,179,Wunderground v.1.15,2013-05-03 12:18:00,
2013-05-03 08:23:00,61.6,54.0,30.05,South,169,4.0,11.0,76,0.00,,,0.00,188,Wunderground v.1.15,2013-05-03 12:23:00,
2013-05-03 08:28:00,61.8,54.2,30.05,South,169,4.0,11.0,76,0.00,,,0.00,206,Wunderground v.1.15,2013-05-03 12:28:00,
2013-05-03 08:33:00,61.8,54.2,30.04,SW,216,4.0,9.0,76,0.00,,,0.00,251,Wunderground v.1.15,2013-05-03 12:33:00,
2013-05-03 08:38:00,62.1,54.1,30.05,SSE,155,4.0,9.0,75,0.00,,,0.00,288,Wunderground v.1.15,2013-05-03 12:38:00,
2013-05-03 08:43:00,62.5,54.5,30.04,South,186,2.0,6.0,75,0.00,,,0.00,308,Wunderground v.1.15,2013-05-03 12:43:00,
2013-05-03 08:48:00,62.7,54.7,30.04,SSE,157,2.0,7.0,75,0.00,,,0.00,306,Wunderground v.1.15,2013-05-03 12:48:00,
2013-05-03 08:53:00,63.1,54.3,30.04,SSE,151,5.0,7.0,73,0.00,,,0.00,320,Wunderground v.1.15,2013-05-03 12:53:00,
2013-05-03 08:58:00,62.9,54.1,30.04,South,189,3.0,10.0,73,0.00,,,0.00,313,Wunderground v.1.15,2013-05-03 12:58:00,
2013-05-03 09:03:00,63.4,54.6,30.04,South,190,3.0,8.0,73,0.00,,,0.00,322,Wunderground v.1.15,2013-05-03 13:03:00,
2013-05-03 09:08:00,63.4,54.6,30.04,ESE,103,2.0,8.0,73,0.00,,,0.00,345,Wunderground v.1.15,2013-05-03 13:08:00,
2013-05-03 09:13:00,63.7,55.3,30.03,SSE,166,4.0,7.0,74,0.00,,,0.00,267,Wunderground v.1.15,2013-05-03 13:13:00,
2013-05-03 09:18:00,64.3,55.1,30.03,South,171,2.0,7.0,72,0.00,,,0.00,251,Wunderground v.1.15,2013-05-03 13:18:00,
2013-05-03 09:23:00,63.9,54.3,30.03,SSW,206,2.0,5.0,71,0.00,,,0.00,269,Wunderground v.1.15,2013-05-03 13:23:00,
2013-05-03 09:28:00,63.8,54.6,30.03,South,178,3.0,6.0,72,0.00,,,0.00,276,Wunderground v.1.15,2013-05-03 13:28:00,
2013-05-03 09:33:00,64.2,54.6,30.03,SSW,207,5.0,7.0,71,0.00,,,0.00,330,Wunderground v.1.15,2013-05-03 13:33:00,
2013-05-03 09:38:00,64.4,54.8,30.02,SSE,147,6.0,7.0,71,0.00,,,0.00,439,Wunderground v.1.15,2013-05-03 13:38:00,
2013-05-03 09:43:00,64.6,55.4,30.02,SSW,209,4.0,7.0,72,0.00,,,0.00,504,Wunderground v.1.15,2013-05-03 13:43:00,
2013-05-03 09:48:00,65.5,55.8,30.02,SSE,147,5.0,7.0,71,0.00,,,0.00,348,Wunderground v.1.15,2013-05-03 13:48:00,
2013-05-03 09:53:00,65.2,55.2,30.02,SW,231,3.0,6.0,70,0.00,,,0.00,334,Wunderground v.1.15,2013-05-03 13:53:00,
2013-05-03 09:58:00,65.6,55.2,30.02,SW,217,4.0,7.0,69,0.00,,,0.00,336,Wunderground v.1.15,2013-05-03 13:58:00,
2013-05-03 10:03:00,66.2,55.7,30.02,SSW,212,1.0,5.0,69,0.00,,,0.00,494,Wunderground v.1.15,2013-05-03 14:03:00,
2013-05-03 10:08:00,66.5,55.2,30.02,SSE,148,1.0,9.0,67,0.00,,,0.00,615,Wunderground v.1.15,2013-05-03 14:08:00,
2013-05-03 10:13:00,67.5,55.7,30.02,WSW,239,1.0,6.0,66,0.00,,,0.00,682,Wunderground v.1.15,2013-05-03 14:13:00,
2013-05-03 10:18:00,67.7,55.9,30.02,South,186,2.0,7.0,66,0.00,,,0.00,610,Wunderground v.1.15,2013-05-03 14:18:00,
2013-05-03 10:23:00,67.6,56.2,30.02,SSE,157,0.0,8.0,67,0.00,,,0.00,427,Wunderground v.1.15,2013-05-03 14:23:00,
2013-05-03 10:28:00,67.7,55.9,30.02,South,180,7.0,9.0,66,0.00,,,0.00,420,Wunderground v.1.15,2013-05-03 14:28:00,
2013-05-03 10:33:00,67.6,56.2,30.02,South,170,4.0,8.0,67,0.00,,,0.00,744,Wunderground v.1.15,2013-05-03 14:33:00,
2013-05-03 10:38:00,67.6,56.2,30.02,South,174,4.0,12.0,67,0.00,,,0.00,708,Wunderground v.1.15,2013-05-03 14:38:00,
2013-05-03 10:43:00,68.3,56.5,30.02,SSE,165,7.0,11.0,66,0.00,,,0.00,722,Wunderground v.1.15,2013-05-03 14:43:00,
2013-05-03 10:48:00,68.5,55.8,30.02,SSE,160,6.0,12.0,64,0.00,,,0.00,772,Wunderground v.1.15,2013-05-03 14:48:00,
2013-05-03 10:53:00,68.7,56.5,30.02,SW,234,7.0,10.0,65,0.00,,,0.00,763,Wunderground v.1.15,2013-05-03 14:53:00,
2013-05-03 10:58:00,68.4,56.2,30.01,SSE,151,5.0,12.0,65,0.00,,,0.00,686,Wunderground v.1.15,2013-05-03 14:58:00,
2013-05-03 11:03:00,68.1,56.3,30.01,SE,131,5.0,13.0,66,0.00,,,0.00,744,Wunderground v.1.15,2013-05-03 15:03:00,
2013-05-03 11:08:00,68.3,56.5,30.01,SSE,158,8.0,13.0,66,0.00,,,0.00,779,Wunderground v.1.15,2013-05-03 15:08:00,
2013-05-03 11:13:00,69.8,56.6,30.01,South,187,7.0,8.0,63,0.00,,,0.00,889,Wunderground v.1.15,2013-05-03 15:13:00,
2013-05-03 11:18:00,70.2,56.6,30.01,SSW,211,6.0,10.0,62,0.00,,,0.00,680,Wunderground v.1.15,2013-05-03 15:18:00,
2013-05-03 11:23:00,70.0,56.8,30.01,SSW,204,5.0,9.0,63,0.00,,,0.00,392,Wunderground v.1.15,2013-05-03 15:23:00,
2013-05-03 11:28:00,69.8,56.2,30.01,South,188,5.0,9.0,62,0.00,,,0.00,388,Wunderground v.1.15,2013-05-03 15:28:00,
2013-05-03 11:33:00,69.4,56.3,30.01,SSE,147,4.0,10.0,63,0.00,,,0.00,422,Wunderground v.1.15,2013-05-03 15:33:00,
2013-05-03 11:38:00,69.4,56.3,30.01,SSE,157,2.0,10.0,63,0.00,,,0.00,425,Wunderground v.1.15,2013-05-03 15:38:00,
2013-05-03 11:43:00,69.5,55.9,30.01,SSW,207,7.0,10.0,62,0.00,,,0.00,550,Wunderground v.1.15,2013-05-03 15:43:00,
2013-05-03 11:48:00,68.9,55.8,30.01,SW,229,5.0,5.0,63,0.00,,,0.00,738,Wunderground v.1.15,2013-05-03 15:48:00,
2013-05-03 11:53:00,69.9,56.7,30.01,SSW,211,7.0,8.0,63,0.00,,,0.00,837,Wunderground v.1.15,2013-05-03 15:53:00,
2013-05-03 11:58:00,71.1,57.0,30.00,WSW,239,7.0,8.0,61,0.00,,,0.00,684,Wunderground v.1.15,2013-05-03 15:58:00,
2013-05-03 12:03:00,71.5,56.9,30.00,SSW,213,5.0,10.0,60,0.00,,,0.00,729,Wunderground v.1.15,2013-05-03 16:03:00,
2013-05-03 12:08:00,71.4,57.7,30.00,ESE,105,7.0,7.0,62,0.00,,,0.00,888,Wunderground v.1.15,2013-05-03 16:08:00,
2013-05-03 12:13:00,70.2,56.6,30.00,SE,136,6.0,11.0,62,0.00,,,0.00,875,Wunderground v.1.15,2013-05-03 16:13:00,
2013-05-03 12:18:00,71.0,58.6,30.00,SSE,153,5.0,6.0,65,0.00,,,0.00,939,Wunderground v.1.15,2013-05-03 16:18:00,
2013-05-03 12:23:00,70.1,56.9,30.00,SE,140,11.0,12.0,63,0.00,,,0.00,707,Wunderground v.1.15,2013-05-03 16:23:00,
2013-05-03 12:28:00,70.9,57.7,30.00,SSW,211,4.0,6.0,63,0.00,,,0.00,476,Wunderground v.1.15,2013-05-03 16:28:00,
2013-05-03 12:33:00,71.4,56.8,30.00,SE,146,1.0,9.0,60,0.00,,,0.00,550,Wunderground v.1.15,2013-05-03 16:33:00,
2013-05-03 12:38:00,72.3,57.6,30.00,SE,141,5.0,6.0,60,0.00,,,0.00,519,Wunderground v.1.15,2013-05-03 16:38:00,
2013-05-03 12:43:00,71.2,56.6,29.99,SE,146,7.0,10.0,60,0.00,,,0.00,522,Wunderground v.1.15,2013-05-03 16:43:00,
2013-05-03 12:48:00,70.8,57.1,29.99,SSE,167,4.0,6.0,62,0.00,,,0.00,656,Wunderground v.1.15,2013-05-03 16:48:00,
2013-05-03 12:53:00,71.1,58.3,29.99,SSW,192,5.0,8.0,64,0.00,,,0.00,445,Wunderground v.1.15,2013-05-03 16:53:00,
2013-05-03 12:58:00,71.5,56.9,29.99,South,190,6.0,6.0,60,0.00,,,0.00,459,Wunderground v.1.15,2013-05-03 16:58:00,
2013-05-03 13:03:00,71.3,57.2,29.98,South,170,4.0,11.0,61,0.00,,,0.00,489,Wunderground v.1.15,2013-05-03 17:03:00,
2013-05-03 13:08:00,71.5,57.8,29.98,ESE,119,10.0,10.0,62,0.00,,,0.00,533,Wunderground v.1.15,2013-05-03 17:08:00,
2013-05-03 13:13:00,71.1,57.4,29.98,SSE,164,4.0,10.0,62,0.00,,,0.00,610,Wunderground v.1.15,2013-05-03 17:13:00,
2013-05-03 13:18:00,71.2,57.5,29.98,ESE,117,9.0,9.0,62,0.00,,,0.00,434,Wunderground v.1.15,2013-05-03 17:18:00,
2013-05-03 13:23:00,70.7,57.0,29.97,SE,136,7.0,11.0,62,0.00,,,0.00,450,Wunderground v.1.15,2013-05-03 17:23:00,
2013-05-03 13:28:00,70.7,56.6,29.97,ESE,109,10.0,10.0,61,0.00,,,0.00,457,Wunderground v.1.15,2013-05-03 17:28:00,
2013-05-03 13:33:00,71.3,57.2,29.97,SSE,165,6.0,11.0,61,0.00,,,0.00,459,Wunderground v.1.15,2013-05-03 17:33:00,
2013-05-03 13:38:00,71.2,58.0,29.97,SE,127,4.0,8.0,63,0.00,,,0.00,466,Wunderground v.1.15,2013-05-03 17:38:00,
2013-05-03 13:43:00,71.0,56.9,29.97,ESE,107,9.0,10.0,61,0.00,,,0.00,441,Wunderground v.1.15,2013-05-03 17:43:00,
2013-05-03 13:48:00,71.3,57.2,29.97,South,184,3.0,5.0,61,0.00,,,0.00,401,Wunderground v.1.15,2013-05-03 17:48:00,
2013-05-03 13:53:00,71.1,56.5,29.96,East,92,7.0,11.0,60,0.00,,,0.00,388,Wunderground v.1.15,2013-05-03 17:53:00,
2013-05-03 13:58:00,70.5,55.5,29.96,SSE,158,5.0,7.0,59,0.00,,,0.00,424,Wunderground v.1.15,2013-05-03 17:58:00,
2013-05-03 14:03:00,70.6,56.9,29.96,SSE,159,5.0,14.0,62,0.00,,,0.00,729,Wunderground v.1.15,2013-05-03 18:03:00,
2013-05-03 14:08:00,71.3,57.2,29.96,SSE,148,5.0,8.0,61,0.00,,,0.00,645,Wunderground v.1.15,2013-05-03 18:08:00,
2013-05-03 14:13:00,71.3,58.1,29.95,SE,131,5.0,11.0,63,0.00,,,0.00,612,Wunderground v.1.15,2013-05-03 18:13:00,
2013-05-03 14:18:00,71.2,57.5,29.95,South,169,5.0,8.0,62,0.00,,,0.00,487,Wunderground v.1.15,2013-05-03 18:18:00,
2013-05-03 14:23:00,71.7,58.9,29.95,ESE,122,7.0,10.0,64,0.00,,,0.00,626,Wunderground v.1.15,2013-05-03 18:23:00,
2013-05-03 14:28:00,72.1,57.9,29.94,East,83,7.0,8.0,61,0.00,,,0.00,745,Wunderground v.1.15,2013-05-03 18:28:00,
2013-05-03 14:33:00,72.4,58.6,29.94,SE,139,8.0,12.0,62,0.00,,,0.00,468,Wunderground v.1.15,2013-05-03 18:33:00,
2013-05-03 14:38:00,72.6,58.8,29.94,SSE,160,2.0,7.0,62,0.00,,,0.00,322,Wunderground v.1.15,2013-05-03 18:38:00,
2013-05-03 14:44:00,72.5,57.8,29.94,South,180,4.0,12.0,60,0.00,,,0.00,366,Wunderground v.1.15,2013-05-03 18:44:00,
2013-05-03 14:49:00,72.3,57.2,29.94,SE,142,8.0,12.0,59,0.00,,,0.00,281,Wunderground v.1.15,2013-05-03 18:49:00,
2013-05-03 14:54:00,72.1,57.4,29.94,SE,132,7.0,14.0,60,0.00,,,0.00,387,Wunderground v.1.15,2013-05-03 18:54:00,
2013-05-03 14:59:00,72.7,58.0,29.94,SE,141,7.0,10.0,60,0.00,,,0.00,445,Wunderground v.1.15,2013-05-03 18:59:00,
2013-05-03 15:04:00,72.8,58.1,29.94,SE,128,7.0,15.0,60,0.00,,,0.00,761,Wunderground v.1.15,2013-05-03 19:04:00,
2013-05-03 15:09:00,73.5,58.3,29.94,East,101,11.0,11.0,59,0.00,,,0.00,751,Wunderground v.1.15,2013-05-03 19:09:00,
2013-05-03 15:14:00,73.9,59.1,29.93,South,179,8.0,11.0,60,0.00,,,0.00,577,Wunderground v.1.15,2013-05-03 19:14:00,
2013-05-03 15:19:00,73.7,58.0,29.93,ESE,113,10.0,10.0,58,0.00,,,0.00,603,Wunderground v.1.15,2013-05-03 19:19:00,
2013-05-03 15:24:00,74.0,58.8,29.92,SE,139,8.0,15.0,59,0.00,,,0.00,772,Wunderground v.1.15,2013-05-03 19:24:00,
2013-05-03 15:29:00,74.4,58.7,29.93,SE,134,9.0,13.0,58,0.00,,,0.00,670,Wunderground v.1.15,2013-05-03 19:29:00,
2013-05-03 15:34:00,74.2,57.5,29.92,SE,134,3.0,18.0,56,0.00,,,0.00,526,Wunderground v.1.15,2013-05-03 19:34:00,
2013-05-03 15:39:00,74.5,58.3,29.92,SSE,165,5.0,8.0,57,0.00,,,0.00,390,Wunderground v.1.15,2013-05-03 19:39:00,
2013-05-03 15:44:00,74.0,57.3,29.92,ESE,111,14.0,18.0,56,0.00,,,0.00,374,Wunderground v.1.15,2013-05-03 19:44:00,
2013-05-03 15:49:00,73.8,56.6,29.92,SE,142,11.0,16.0,55,0.00,,,0.00,573,Wunderground v.1.15,2013-05-03 19:49:00,
2013-05-03 15:54:00,74.2,58.5,29.92,SSE,159,8.0,16.0,58,0.00,,,0.00,592,Wunderground v.1.15,2013-05-03 19:54:00,
2013-05-03 15:59:00,74.3,57.1,29.92,SSW,202,12.0,12.0,55,0.00,,,0.00,385,Wunderground v.1.15,2013-05-03 19:59:00,
2013-05-03 16:04:00,74.3,57.1,29.92,SE,140,0.0,14.0,55,0.00,,,0.00,512,Wunderground v.1.15,2013-05-03 20:04:00,
2013-05-03 16:09:00,73.8,55.6,29.92,SSE,163,16.0,16.0,53,0.00,,,0.00,332,Wunderground v.1.15,2013-05-03 20:09:00,
2013-05-03 16:14:00,74.1,55.9,29.92,SE,124,8.0,16.0,53,0.00,,,0.00,758,Wunderground v.1.15,2013-05-03 20:14:00,
2013-05-03 16:19:00,74.0,55.3,29.91,SE,144,5.0,13.0,52,0.00,,,0.00,260,Wunderground v.1.15,2013-05-03 20:19:00,
2013-05-03 16:24:00,74.4,55.6,29.91,SE,136,11.0,19.0,52,0.00,,,0.00,786,Wunderground v.1.15,2013-05-03 20:24:00,
2013-05-03 16:29:00,75.0,56.7,29.91,SSW,198,7.0,14.0,53,0.00,,,0.00,795,Wunderground v.1.15,2013-05-03 20:29:00,
2013-05-03 16:34:00,74.9,55.6,29.91,SW,225,11.0,16.0,51,0.00,,,0.00,817,Wunderground v.1.15,2013-05-03 20:34:00,
2013-05-03 16:39:00,75.5,56.1,29.91,South,173,5.0,12.0,51,0.00,,,0.00,745,Wunderground v.1.15,2013-05-03 20:39:00,
2013-05-03 16:44:00,75.5,55.0,29.91,SSW,203,10.0,12.0,49,0.00,,,0.00,687,Wunderground v.1.15,2013-05-03 20:44:00,
2013-05-03 16:49:00,75.2,54.7,29.91,SSE,148,9.0,14.0,49,0.00,,,0.00,629,Wunderground v.1.15,2013-05-03 20:49:00,
2013-05-03 16:54:00,74.9,55.0,29.90,SSW,202,10.0,18.0,50,0.00,,,0.00,503,Wunderground v.1.15,2013-05-03 20:54:00,
2013-05-03 16:59:00,75.4,54.9,29.90,South,180,11.0,12.0,49,0.00,,,0.00,659,Wunderground v.1.15,2013-05-03 20:59:00,
2013-05-03 17:04:00,76.0,54.9,29.90,WSW,255,10.0,18.0,48,0.00,,,0.00,555,Wunderground v.1.15,2013-05-03 21:04:00,
2013-05-03 17:09:00,76.1,55.0,29.90,South,180,4.0,11.0,48,0.00,,,0.00,425,Wunderground v.1.15,2013-05-03 21:09:00,
2013-05-03 17:14:00,76.2,55.6,29.90,SW,236,12.0,12.0,49,0.00,,,0.00,330,Wunderground v.1.15,2013-05-03 21:14:00,
2013-05-03 17:19:00,75.2,54.7,29.90,SSE,159,7.0,16.0,49,0.00,,,0.00,346,Wunderground v.1.15,2013-05-03 21:19:00,
2013-05-03 17:24:00,74.9,55.6,29.90,SW,217,10.0,16.0,51,0.00,,,0.00,348,Wunderground v.1.15,2013-05-03 21:24:00,
2013-05-03 17:29:00,75.2,55.3,29.90,SSE,163,1.0,9.0,50,0.00,,,0.00,466,Wunderground v.1.15,2013-05-03 21:29:00,
2013-05-03 17:34:00,75.3,54.8,29.90,South,182,3.0,10.0,49,0.00,,,0.00,352,Wunderground v.1.15,2013-05-03 21:34:00,
2013-05-03 17:39:00,75.2,55.8,29.90,SW,234,6.0,11.0,51,0.00,,,0.00,445,Wunderground v.1.15,2013-05-03 21:39:00,
2013-05-03 17:44:00,75.4,56.0,29.89,SSW,202,4.0,13.0,51,0.00,,,0.00,408,Wunderground v.1.15,2013-05-03 21:44:00,
2013-05-03 17:49:00,75.1,55.2,29.89,South,190,3.0,7.0,50,0.00,,,0.00,213,Wunderground v.1.15,2013-05-03 21:49:00,
2013-05-03 17:54:00,74.8,55.5,29.89,South,180,7.0,9.0,51,0.00,,,0.00,202,Wunderground v.1.15,2013-05-03 21:54:00,
2013-05-03 17:55:00,74.8,56.0,29.89,SW,236,6.0,9.0,52,0.00,,,0.00,202,Wunderground v.1.15,2013-05-03 21:55:00,
2013-05-03 18:00:00,74.5,55.2,29.89,SSW,210,3.0,10.0,51,0.00,,,0.00,193,Wunderground v.1.15,2013-05-03 22:00:00,
2013-05-03 18:05:00,74.6,55.3,29.89,SSW,210,4.0,10.0,51,0.00,,,0.00,202,Wunderground v.1.15,2013-05-03 22:05:00,
2013-05-03 18:11:00,74.7,55.4,29.89,SSE,167,6.0,6.0,51,0.00,,,0.00,218,Wunderground v.1.15,2013-05-03 22:11:00,
2013-05-03 18:16:00,74.7,55.9,29.89,SSE,153,5.0,8.0,52,0.00,,,0.00,234,Wunderground v.1.15,2013-05-03 22:16:00,
2013-05-03 18:20:00,74.5,55.7,29.89,SSW,197,5.0,16.0,52,0.00,,,0.00,204,Wunderground v.1.15,2013-05-03 22:20:00,
2013-05-03 18:26:00,74.5,55.2,29.90,SSE,163,2.0,16.0,51,0.00,,,0.00,202,Wunderground v.1.15,2013-05-03 22:26:00,
2013-05-03 18:31:00,74.3,55.0,29.89,SSW,202,6.0,10.0,51,0.00,,,0.00,234,Wunderground v.1.15,2013-05-03 22:31:00,
2013-05-03 18:36:00,74.0,53.6,29.89,SSE,165,9.0,19.0,49,0.00,,,0.00,190,Wunderground v.1.15,2013-05-03 22:36:00,
2013-05-03 18:41:00,73.9,54.6,29.89,SSW,192,3.0,12.0,51,0.00,,,0.00,174,Wunderground v.1.15,2013-05-03 22:41:00,
2013-05-03 18:46:00,73.8,54.0,29.89,South,171,5.0,12.0,50,0.00,,,0.00,151,Wunderground v.1.15,2013-05-03 22:46:00,
2013-05-03 18:51:00,73.6,54.4,29.89,SSW,208,4.0,17.0,51,0.00,,,0.00,137,Wunderground v.1.15,2013-05-03 22:51:00,
2013-05-03 18:56:00,73.5,54.3,29.89,West,277,5.0,17.0,51,0.00,,,0.00,130,Wunderground v.1.15,2013-05-03 22:56:00,
2013-05-03 19:01:00,73.3,54.6,29.89,SW,219,3.0,7.0,52,0.00,,,0.00,123,Wunderground v.1.15,2013-05-03 23:01:00,
2013-05-03 19:06:00,73.0,54.3,29.89,SSE,150,8.0,13.0,52,0.00,,,0.00,113,Wunderground v.1.15,2013-05-03 23:06:00,
2013-05-03 19:11:00,73.0,54.3,29.89,South,182,8.0,10.0,52,0.00,,,0.00,100,Wunderground v.1.15,2013-05-03 23:11:00,
2013-05-03 19:16:00,72.8,54.1,29.89,SSE,167,4.0,10.0,52,0.00,,,0.00,90,Wunderground v.1.15,2013-05-03 23:16:00,
2013-05-03 19:21:00,72.6,54.0,29.89,South,169,1.0,6.0,52,0.00,,,0.00,84,Wunderground v.1.15,2013-05-03 23:21:00,
2013-05-03 19:26:00,72.6,54.5,29.89,SE,129,3.0,8.0,53,0.00,,,0.00,77,Wunderground v.1.15,2013-05-03 23:26:00,
2013-05-03 19:31:00,72.5,54.4,29.89,SSE,160,3.0,6.0,53,0.00,,,0.00,70,Wunderground v.1.15,2013-05-03 23:31:00,
2013-05-03 19:36:00,72.3,54.7,29.89,ESE,107,4.0,6.0,54,0.00,,,0.00,56,Wunderground v.1.15,2013-05-03 23:36:00,
2013-05-03 19:41:00,72.2,54.6,29.89,SSE,162,2.0,5.0,54,0.00,,,0.00,39,Wunderground v.1.15,2013-05-03 23:41:00,
2013-05-03 19:46:00,72.0,54.4,29.89,SSE,166,6.0,6.0,54,0.00,,,0.00,26,Wunderground v.1.15,2013-05-03 23:46:00,
2013-05-03 19:51:00,71.8,54.3,29.89,SSE,151,3.0,5.0,54,0.00,,,0.00,21,Wunderground v.1.15,2013-05-03 23:51:00,
2013-05-03 19:56:00,71.6,54.1,29.89,SSE,148,3.0,6.0,54,0.00,,,0.00,18,Wunderground v.1.15,2013-05-03 23:56:00,
2013-05-03 20:01:00,71.4,54.4,29.89,SE,145,7.0,8.0,55,0.00,,,0.00,11,Wunderground v.1.15,2013-05-04 00:01:00,
2013-05-03 20:06:00,71.3,54.3,29.89,SE,132,3.0,8.0,55,0.00,,,0.00,7,Wunderground v.1.15,2013-05-04 00:06:00,
2013-05-03 20:11:00,71.0,54.5,29.89,SE,126,2.0,7.0,56,0.00,,,0.00,5,Wunderground v.1.15,2013-05-04 00:11:00,
2013-05-03 20:16:00,70.9,54.4,29.89,ESE,123,3.0,7.0,56,0.00,,,0.00,0,Wunderground v.1.15,2013-05-04 00:16:00,
2013-05-03 20:21:00,70.9,54.4,29.89,SE,126,10.0,10.0,56,0.00,,,0.00,0,Wunderground v.1.15,2013-05-04 00:21:00,
2013-05-03 20:26:00,70.8,54.3,29.89,SE,142,6.0,10.0,56,0.00,,,0.00,0,Wunderground v.1.15,2013-05-04 00:26:00,
2013-05-03 20:31:00,70.8,54.3,29.89,SE,136,3.0,8.0,56,0.00,,,0.00,0,Wunderground v.1.15,2013-05-04 00:31:00,
2013-05-03 20:36:00,70.8,54.3,29.89,ESE,122,11.0,12.0,56,0.00,,,0.00,0,Wunderground v.1.15,2013-05-04 00:36:00,
2013-05-03 20:41:00,70.5,54.0,29.90,SE,140,3.0,11.0,56,0.00,,,0.00,0,Wunderground v.1.15,2013-05-04 00:41:00,
2013-05-03 20:46:00,70.4,54.0,29.90,SE,143,7.0,11.0,56,0.00,,,0.00,0,Wunderground v.1.15,2013-05-04 00:46:00,
2013-05-03 20:51:00,70.4,53.5,29.90,SE,142,9.0,13.0,55,0.00,,,0.00,0,Wunderground v.1.15,2013-05-04 00:51:00,
2013-05-03 20:56:00,70.3,53.4,29.90,South,170,6.0,13.0,55,0.00,,,0.00,0,Wunderground v.1.15,2013-05-04 00:56:00,
2013-05-03 21:01:00,70.2,53.3,29.90,SSE,155,4.0,11.0,55,0.00,,,0.00,0,Wunderground v.1.15,2013-05-04 01:01:00,
2013-05-03 21:06:00,69.9,53.0,29.90,SE,142,11.0,11.0,55,0.00,,,0.00,0,Wunderground v.1.15,2013-05-04 01:06:00,
2013-05-03 21:11:00,69.8,52.4,29.90,South,173,3.0,6.0,54,0.00,,,0.00,0,Wunderground v.1.15,2013-05-04 01:11:00,
2013-05-03 21:16:00,69.7,52.3,29.90,South,175,2.0,6.0,54,0.00,,,0.00,0,Wunderground v.1.15,2013-05-04 01:16:00,
2013-05-03 21:21:00,69.5,52.6,29.90,SSE,151,5.0,5.0,55,0.00,,,0.00,0,Wunderground v.1.15,2013-05-04 01:21:00,
2013-05-03 21:26:00,69.4,52.0,29.91,SSE,161,2.0,7.0,54,0.00,,,0.00,0,Wunderground v.1.15,2013-05-04 01:26:00,
2013-05-03 21:31:00,69.2,51.8,29.91,SSE,156,4.0,6.0,54,0.00,,,0.00,0,Wunderground v.1.15,2013-05-04 01:31:00,
2013-05-03 21:36:00,68.9,52.1,29.91,SSE,159,4.0,7.0,55,0.00,,,0.00,0,Wunderground v.1.15,2013-05-04 01:36:00,
2013-05-03 21:41:00,68.8,51.5,29.91,SSE,150,3.0,7.0,54,0.00,,,0.00,0,Wunderground v.1.15,2013-05-04 01:41:00,
2013-05-03 21:46:00,68.7,51.4,29.91,SE,140,3.0,8.0,54,0.00,,,0.00,0,Wunderground v.1.15,2013-05-04 01:46:00,
2013-05-03 21:51:00,68.5,50.7,29.91,SSE,148,5.0,7.0,53,0.00,,,0.00,0,Wunderground v.1.15,2013-05-04 01:51:00,
2013-05-03 21:56:00,68.3,50.0,29.91,SSE,157,3.0,7.0,52,0.00,,,0.00,0,Wunderground v.1.15,2013-05-04 01:56:00,
2013-05-03 22:01:00,68.1,49.8,29.92,SE,142,6.0,6.0,52,0.00,,,0.00,0,Wunderground v.1.15,2013-05-04 02:01:00,
2013-05-03 22:06:00,68.1,49.3,29.92,South,178,1.0,8.0,51,0.00,,,0.00,0,Wunderground v.1.15,2013-05-04 02:06:00,
2013-05-03 22:11:00,67.8,49.0,29.92,South,177,4.0,5.0,51,0.00,,,0.00,0,Wunderground v.1.15,2013-05-04 02:11:00,
2013-05-03 22:16:00,67.7,48.4,29.92,SE,141,6.0,7.0,50,0.00,,,0.00,0,Wunderground v.1.15,2013-05-04 02:16:00,
2013-05-03 22:21:00,67.6,48.3,29.92,SSE,162,2.0,6.0,50,0.00,,,0.00,0,Wunderground v.1.15,2013-05-04 02:21:00,
2013-05-03 22:26:00,67.2,47.9,29.92,SSE,161,4.0,10.0,50,0.00,,,0.00,0,Wunderground v.1.15,2013-05-04 02:26:00,
2013-05-03 22:31:00,67.0,48.3,29.92,SSE,158,3.0,8.0,51,0.00,,,0.00,0,Wunderground v.1.15,2013-05-04 02:31:00,
2013-05-03 22:36:00,66.8,48.1,29.92,SE,146,4.0,8.0,51,0.00,,,0.00,0,Wunderground v.1.15,2013-05-04 02:36:00,
2013-05-03 22:41:00,66.8,47.0,29.92,South,175,3.0,8.0,49,0.00,,,0.00,0,Wunderground v.1.15,2013-05-04 02:41:00,
2013-05-03 22:46:00,66.7,46.9,29.92,SE,139,5.0,8.0,49,0.00,,,0.00,0,Wunderground v.1.15,2013-05-04 02:46:00,
2013-05-03 22:51:00,66.5,47.3,29.92,SE,144,4.0,5.0,50,0.00,,,0.00,0,Wunderground v.1.15,2013-05-04 02:51:00,
2013-05-03 22:56:00,66.3,47.6,29.92,South,173,2.0,6.0,51,0.00,,,0.00,0,Wunderground v.1.15,2013-05-04 02:56:00,
2013-05-03 23:01:00,66.2,47.0,29.92,South,180,5.0,7.0,50,0.00,,,0.00,0,Wunderground v.1.15,2013-05-04 03:01:00,
2013-05-03 23:06:00,66.2,47.0,29.92,South,183,2.0,7.0,50,0.00,,,0.00,0,Wunderground v.1.15,2013-05-04 03:06:00,
2013-05-03 23:11:00,66.2,47.5,29.92,SE,126,10.0,11.0,51,0.00,,,0.00,0,Wunderground v.1.15,2013-05-04 03:11:00,
2013-05-03 23:17:00,66.1,47.4,29.92,South,181,5.0,11.0,51,0.00,,,0.00,0,Wunderground v.1.15,2013-05-04 03:17:00,
2013-05-03 23:22:00,66.0,47.9,29.92,South,184,5.0,8.0,52,0.00,,,0.00,0,Wunderground v.1.15,2013-05-04 03:22:00,
2013-05-03 23:27:00,65.8,47.7,29.92,South,191,3.0,8.0,52,0.00,,,0.00,0,Wunderground v.1.15,2013-05-04 03:27:00,
2013-05-03 23:32:00,65.9,47.8,29.92,SSW,197,7.0,11.0,52,0.00,,,0.00,0,Wunderground v.1.15,2013-05-04 03:32:00,
2013-05-03 23:37:00,66.0,48.4,29.92,SSE,167,9.0,13.0,53,0.00,,,0.00,0,Wunderground v.1.15,2013-05-04 03:37:00,
2013-05-03 23:42:00,66.1,48.0,29.92,SSW,196,8.0,13.0,52,0.00,,,0.00,0,Wunderground v.1.15,2013-05-04 03:42:00,
2013-05-03 23:47:00,66.1,48.0,29.92,South,177,5.0,13.0,52,0.00,,,0.00,0,Wunderground v.1.15,2013-05-04 03:47:00,
2013-05-03 23:52:00,66.1,47.4,29.92,South,187,8.0,10.0,51,0.00,,,0.00,0,Wunderground v.1.15,2013-05-04 03:52:00,
2013-05-03 23:57:00,65.9,47.8,29.92,SSW,193,1.0,10.0,52,0.00,,,0.00,0,Wunderground v.1.15,2013-05-04 03:57:00,